Wetterdaten: Woche 03.11.14 - 09.11.14 (KW45)
Datum Zeit Temp. A. Feuchte A. Luftdruck Regen Wind Richtung Sonnenschein ET UV Solar Taupunkt Windchill Windben Empfang
03.11.2014 00:00 5,1 C 86 % 1019,2 hPa 0,0 l/m 0,8 km/h (0 Bft) O 0,00 h 0,000 mm 0,0 UV-I 0 W/m 3,0 C 5,1 C 2,0 km/h (1 Bft) 0,00 %
03.11.2014 01:00 5,0 C 87 % 1019,2 hPa 0,0 l/m 0,3 km/h (0 Bft) N 0,00 h 0,000 mm 0,0 UV-I 0 W/m 3,0 C 5,0 C 2,0 km/h (1 Bft) 0,00 %
03.11.2014 02:00 5,0 C 88 % 1019,2 hPa 0,0 l/m 0,6 km/h (0 Bft) O 0,00 h 0,000 mm 0,0 UV-I 0 W/m 3,1 C 5,0 C 3,0 km/h (1 Bft) 0,00 %
03.11.2014 03:00 5,1 C 88 % 1019,2 hPa 0,0 l/m 0,6 km/h (0 Bft) N 0,00 h 0,000 mm 0,0 UV-I 0 W/m 3,3 C 5,1 C 2,0 km/h (1 Bft) 0,00 %
03.11.2014 04:00 5,2 C 88 % 1019,2 hPa 0,0 l/m 2,3 km/h (1 Bft) O 0,00 h 0,000 mm 0,0 UV-I 0 W/m 3,4 C 5,2 C 5,9 km/h (2 Bft) 0,00 %
03.11.2014 05:00 5,2 C 89 % 1019,2 hPa 0,0 l/m 0,5 km/h (0 Bft) O 0,00 h 0,000 mm 0,0 UV-I 0 W/m 3,6 C 5,2 C 2,0 km/h (1 Bft) 0,00 %
03.11.2014 06:00 5,3 C 90 % 1019,2 hPa 0,0 l/m 0,6 km/h (0 Bft) O 0,00 h 0,000 mm 0,0 UV-I 0 W/m 3,8 C 5,3 C 2,0 km/h (1 Bft) 0,00 %
03.11.2014 07:00 5,4 C 86 % 1019,2 hPa 0,0 l/m 0,9 km/h (0 Bft) SO 0,00 h 0,000 mm 0,0 UV-I 32 W/m 3,3 C 5,4 C 2,0 km/h (1 Bft) 0,00 %
03.11.2014 08:00 5,6 C 86 % 1019,1 hPa 0,3 l/m 2,0 km/h (1 Bft) O 0,00 h 0,000 mm 1,0 UV-I 48 W/m 3,4 C 5,6 C 4,0 km/h (1 Bft) 0,00 %
03.11.2014 09:00 5,9 C 86 % 1019,1 hPa 0,0 l/m 2,0 km/h (1 Bft) O-SO 0,00 h 0,000 mm 1,0 UV-I 85 W/m 3,7 C 5,9 C 4,0 km/h (1 Bft) 0,00 %
03.11.2014 10:00 6,0 C 86 % 1019,1 hPa 0,0 l/m 0,7 km/h (0 Bft) O-SO 0,00 h 0,000 mm 1,0 UV-I 77 W/m 3,9 C 6,0 C 3,0 km/h (1 Bft) 0,00 %
03.11.2014 11:00 6,3 C 86 % 1019,0 hPa 0,0 l/m 0,3 km/h (0 Bft) N 0,00 h 0,000 mm 1,0 UV-I 113 W/m 4,0 C 6,3 C 3,0 km/h (1 Bft) 0,00 %
03.11.2014 12:00 6,3 C 86 % 1019,0 hPa 0,0 l/m 2,9 km/h (1 Bft) O-SO 0,00 h 0,000 mm 1,0 UV-I 140 W/m 4,1 C 6,3 C 5,9 km/h (2 Bft) 0,00 %
03.11.2014 13:00 6,3 C 86 % 1019,0 hPa 0,0 l/m 0,2 km/h (0 Bft) O-SO 0,00 h 0,000 mm 1,0 UV-I 131 W/m 4,1 C 6,3 C 2,0 km/h (1 Bft) 0,00 %
03.11.2014 14:00 6,1 C 86 % 1019,1 hPa 0,0 l/m 3,1 km/h (1 Bft) O-SO 0,00 h 0,000 mm 1,0 UV-I 106 W/m 4,0 C 6,1 C 5,9 km/h (2 Bft) 0,00 %
03.11.2014 15:00 5,8 C 86 % 1019,1 hPa 0,0 l/m 2,0 km/h (1 Bft) O 0,00 h 0,000 mm 0,0 UV-I 34 W/m 3,6 C 5,7 C 5,0 km/h (1 Bft) 0,00 %
03.11.2014 16:00 5,6 C 86 % 1019,1 hPa 0,0 l/m 1,7 km/h (1 Bft) O-SO 0,00 h 0,000 mm 0,0 UV-I 0 W/m 3,4 C 5,6 C 5,0 km/h (1 Bft) 0,00 %
03.11.2014 17:00 5,4 C 86 % 1019,2 hPa 0,0 l/m 3,5 km/h (1 Bft) O 0,00 h 0,000 mm 0,0 UV-I 0 W/m 3,2 C 5,2 C 5,9 km/h (2 Bft) 0,00 %
03.11.2014 18:00 5,3 C 86 % 1019,2 hPa 0,0 l/m 2,6 km/h (1 Bft) O 0,00 h 0,000 mm 0,0 UV-I 0 W/m 3,2 C 4,8 C 5,0 km/h (1 Bft) 0,00 %
03.11.2014 19:00 5,3 C 86 % 1019,2 hPa 0,0 l/m 5,6 km/h (1 Bft) O 0,00 h 0,000 mm 0,0 UV-I 0 W/m 3,1 C 4,7 C 7,9 km/h (2 Bft) 0,00 %
03.11.2014 20:00 5,1 C 86 % 1019,2 hPa 0,0 l/m 6,4 km/h (2 Bft) O 0,00 h 0,000 mm 0,0 UV-I 0 W/m 2,9 C 3,5 C 11,9 km/h (2 Bft) 0,00 %
03.11.2014 21:00 5,1 C 87 % 1019,2 hPa 0,0 l/m 3,7 km/h (1 Bft) O 0,00 h 0,000 mm 0,0 UV-I 0 W/m 3,0 C 4,5 C 6,0 km/h (2 Bft) 0,00 %
03.11.2014 22:00 5,1 C 88 % 1019,2 hPa 0,0 l/m 5,1 km/h (1 Bft) O 0,00 h 0,000 mm 0,0 UV-I 0 W/m 3,2 C 4,3 C 8,9 km/h (2 Bft) 0,00 %
03.11.2014 23:00 5,0 C 89 % 1019,2 hPa 0,0 l/m 3,0 km/h (1 Bft) O 0,00 h 0,000 mm 0,0 UV-I 0 W/m 3,3 C 5,0 C 6,6 km/h (2 Bft) 0,00 %
04.11.2014 00:00 5,0 C 89 % 1019,2 hPa 0,0 l/m 1,2 km/h (1 Bft) O-NO 0,00 h 0,000 mm 0,0 UV-I 0 W/m 3,3 C 5,0 C 3,0 km/h (1 Bft) 0,00 %
04.11.2014 01:00 4,9 C 89 % 1019,3 hPa 0,0 l/m 2,7 km/h (1 Bft) O 0,00 h 0,000 mm 0,0 UV-I 0 W/m 3,3 C 4,9 C 5,9 km/h (2 Bft) 0,00 %
04.11.2014 02:00 4,9 C 90 % 1019,3 hPa 0,0 l/m 1,4 km/h (1 Bft) O 0,00 h 0,000 mm 0,0 UV-I 0 W/m 3,4 C 4,9 C 4,0 km/h (1 Bft) 0,00 %
04.11.2014 03:00 4,8 C 90 % 1019,3 hPa 0,0 l/m 1,5 km/h (1 Bft) O-SO 0,00 h 0,000 mm 0,0 UV-I 0 W/m 3,3 C 4,8 C 4,0 km/h (1 Bft) 0,00 %
04.11.2014 04:00 4,3 C 90 % 1019,3 hPa 0,0 l/m 0,0 km/h (0 Bft) N 0,00 h 0,000 mm 0,0 UV-I 0 W/m 2,9 C 4,3 C 0,0 km/h (0 Bft) 0,00 %
04.11.2014 05:00 4,0 C 90 % 1019,4 hPa 0,0 l/m 0,0 km/h (0 Bft) N 0,00 h 0,000 mm 0,0 UV-I 0 W/m 2,5 C 4,0 C 0,0 km/h (0 Bft) 0,00 %
04.11.2014 06:00 4,0 C 90 % 1019,4 hPa 0,0 l/m 0,0 km/h (0 Bft) N 0,00 h 0,000 mm 0,0 UV-I 0 W/m 2,5 C 4,0 C 0,0 km/h (0 Bft) 0,00 %
04.11.2014 07:00 4,5 C 90 % 1019,3 hPa 0,0 l/m 0,0 km/h (0 Bft) N 0,00 h 0,000 mm 0,0 UV-I 0 W/m 3,0 C 4,5 C 0,0 km/h (0 Bft) 0,00 %
04.11.2014 08:00 4,6 C 90 % 1019,3 hPa 0,0 l/m 0,0 km/h (0 Bft) N 0,00 h 0,000 mm 0,0 UV-I 0 W/m 3,1 C 4,6 C 0,0 km/h (0 Bft) 0,00 %
04.11.2014 09:00 5,3 C 90 % 1019,2 hPa 0,0 l/m 0,0 km/h (0 Bft) N 0,00 h 0,000 mm 0,0 UV-I 0 W/m 3,8 C 5,3 C 0,0 km/h (0 Bft) 0,00 %
04.11.2014 10:00 6,5 C 90 % 1019,0 hPa 0,0 l/m 0,0 km/h (0 Bft) N 0,00 h 0,000 mm 0,0 UV-I 0 W/m 5,0 C 6,5 C 0,0 km/h (0 Bft) 0,00 %
04.11.2014 11:00 7,6 C 90 % 1018,8 hPa 0,0 l/m 0,0 km/h (0 Bft) N 0,00 h 0,000 mm 0,0 UV-I 0 W/m 6,1 C 7,6 C 0,0 km/h (0 Bft) 0,00 %
04.11.2014 12:00 8,5 C 83 % 1018,7 hPa 0,0 l/m 0,0 km/h (0 Bft) N 0,00 h 0,000 mm 0,0 UV-I 0 W/m 5,7 C 8,5 C 0,0 km/h (0 Bft) 0,00 %
04.11.2014 13:00 13,0 C 80 % 1017,9 hPa 0,0 l/m 0,0 km/h (0 Bft) N 0,00 h 0,000 mm 0,0 UV-I 0 W/m 9,7 C 13,0 C 0,0 km/h (0 Bft) 0,00 %
04.11.2014 14:00 13,3 C 80 % 1017,9 hPa 0,0 l/m 0,0 km/h (0 Bft) N 0,00 h 0,000 mm 0,0 UV-I 0 W/m 9,9 C 13,3 C 0,0 km/h (0 Bft) 0,00 %
04.11.2014 15:00 13,3 C 80 % 1017,9 hPa 0,0 l/m 0,0 km/h (0 Bft) N 0,00 h 0,000 mm 0,0 UV-I 0 W/m 10,0 C 13,3 C 0,0 km/h (0 Bft) 0,00 %
04.11.2014 16:00 10,5 C 80 % 1018,4 hPa 0,0 l/m 0,0 km/h (0 Bft) N 0,00 h 0,000 mm 0,0 UV-I 0 W/m 7,2 C 10,5 C 0,0 km/h (0 Bft) 0,00 %
04.11.2014 17:00 7,2 C 80 % 1018,9 hPa 0,0 l/m 0,0 km/h (0 Bft) N 0,00 h 0,000 mm 0,0 UV-I 0 W/m 3,9 C 7,2 C 0,0 km/h (0 Bft) 0,00 %
04.11.2014 18:00 7,2 C 85 % 1018,9 hPa 0,0 l/m 0,0 km/h (0 Bft) N 0,00 h 0,000 mm 0,0 UV-I 0 W/m 4,9 C 7,2 C 0,0 km/h (0 Bft) 0,00 %
04.11.2014 19:00 7,6 C 90 % 1018,8 hPa 0,0 l/m 0,0 km/h (0 Bft) N 0,00 h 0,000 mm 0,0 UV-I 0 W/m 6,1 C 7,6 C 0,0 km/h (0 Bft) 0,00 %
04.11.2014 20:00 5,4 C 90 % 1019,2 hPa 0,0 l/m 0,0 km/h (0 Bft) N 0,00 h 0,000 mm 0,0 UV-I 0 W/m 3,9 C 5,4 C 0,0 km/h (0 Bft) 0,00 %
04.11.2014 21:00 5,4 C 90 % 1019,2 hPa 0,0 l/m 0,0 km/h (0 Bft) N 0,00 h 0,000 mm 0,0 UV-I 0 W/m 3,9 C 5,4 C 0,0 km/h (0 Bft) 0,00 %
04.11.2014 22:00 5,4 C 90 % 1019,2 hPa 0,0 l/m 0,0 km/h (0 Bft) N 0,00 h 0,000 mm 0,0 UV-I 0 W/m 3,9 C 5,4 C 0,0 km/h (0 Bft) 0,00 %
04.11.2014 23:00 5,2 C 90 % 1019,2 hPa 0,0 l/m 0,0 km/h (0 Bft) N 0,00 h 0,000 mm 0,0 UV-I 0 W/m 3,7 C 5,2 C 0,0 km/h (0 Bft) 0,00 %
05.11.2014 00:00 4,1 C 90 % 1019,4 hPa 0,0 l/m 0,0 km/h (0 Bft) N 0,00 h 0,000 mm 0,0 UV-I 0 W/m 2,6 C 4,1 C 0,0 km/h (0 Bft) 0,00 %
05.11.2014 01:00 4,3 C 90 % 1019,4 hPa 0,0 l/m 0,0 km/h (0 Bft) N 0,00 h 0,000 mm 0,0 UV-I 0 W/m 2,9 C 4,3 C 0,0 km/h (0 Bft) 0,00 %
05.11.2014 02:00 4,8 C 90 % 1019,3 hPa 0,0 l/m 0,0 km/h (0 Bft) N 0,00 h 0,000 mm 0,0 UV-I 0 W/m 3,3 C 4,8 C 0,0 km/h (0 Bft) 0,00 %
05.11.2014 03:00 4,3 C 90 % 1019,4 hPa 0,0 l/m 0,0 km/h (0 Bft) N 0,00 h 0,000 mm 0,0 UV-I 0 W/m 2,8 C 4,3 C 0,0 km/h (0 Bft) 0,00 %
05.11.2014 04:00 4,7 C 90 % 1019,3 hPa 0,0 l/m 0,0 km/h (0 Bft) N 0,00 h 0,000 mm 0,0 UV-I 0 W/m 3,2 C 4,7 C 0,0 km/h (0 Bft) 0,00 %
05.11.2014 05:00 5,5 C 90 % 1019,2 hPa 0,0 l/m 0,0 km/h (0 Bft) N 0,00 h 0,000 mm 0,0 UV-I 0 W/m 4,0 C 5,5 C 0,0 km/h (0 Bft) 0,00 %
05.11.2014 06:00 6,1 C 90 % 1019,0 hPa 0,0 l/m 0,0 km/h (0 Bft) N 0,00 h 0,000 mm 0,0 UV-I 0 W/m 4,6 C 6,1 C 0,0 km/h (0 Bft) 0,00 %
05.11.2014 07:00 6,6 C 90 % 1019,0 hPa 0,0 l/m 0,0 km/h (0 Bft) N 0,00 h 0,000 mm 0,0 UV-I 0 W/m 5,0 C 6,6 C 0,0 km/h (0 Bft) 0,00 %
05.11.2014 08:00 7,0 C 90 % 1018,9 hPa 0,0 l/m 0,0 km/h (0 Bft) N 0,00 h 0,000 mm 0,0 UV-I 0 W/m 5,4 C 7,0 C 0,0 km/h (0 Bft) 0,00 %
05.11.2014 09:00 7,3 C 90 % 1018,9 hPa 0,0 l/m 0,0 km/h (0 Bft) N 0,00 h 0,000 mm 0,0 UV-I 0 W/m 5,8 C 7,3 C 0,0 km/h (0 Bft) 0,00 %
05.11.2014 10:00 7,7 C 83 % 1018,8 hPa 0,0 l/m 0,0 km/h (0 Bft) N 0,00 h 0,000 mm 0,0 UV-I 0 W/m 4,9 C 7,7 C 0,0 km/h (0 Bft) 0,00 %
05.11.2014 11:00 7,4 C 80 % 1018,9 hPa 0,0 l/m 0,0 km/h (0 Bft) N 0,00 h 0,000 mm 0,0 UV-I 0 W/m 4,2 C 7,4 C 0,0 km/h (0 Bft) 0,00 %
05.11.2014 12:00 7,6 C 80 % 1018,8 hPa 0,0 l/m 0,0 km/h (0 Bft) N 0,00 h 0,000 mm 0,0 UV-I 0 W/m 4,3 C 7,6 C 0,0 km/h (0 Bft) 0,00 %
05.11.2014 13:00 8,0 C 80 % 1018,8 hPa 0,0 l/m 0,0 km/h (0 Bft) N 0,00 h 0,000 mm 0,0 UV-I 0 W/m 4,8 C 8,0 C 0,0 km/h (0 Bft) 0,00 %
05.11.2014 14:00 8,5 C 80 % 1018,7 hPa 0,0 l/m 0,0 km/h (0 Bft) N 0,00 h 0,000 mm 0,0 UV-I 0 W/m 5,2 C 8,5 C 0,0 km/h (0 Bft) 0,00 %
05.11.2014 15:00 8,9 C 80 % 1018,6 hPa 0,0 l/m 0,0 km/h (0 Bft) N 0,00 h 0,000 mm 0,0 UV-I 0 W/m 5,6 C 8,9 C 0,0 km/h (0 Bft) 0,00 %
05.11.2014 16:00 9,3 C 80 % 1018,5 hPa 0,0 l/m 0,0 km/h (0 Bft) N 0,00 h 0,000 mm 0,0 UV-I 0 W/m 6,0 C 9,3 C 0,0 km/h (0 Bft) 0,00 %
05.11.2014 17:00 9,6 C 80 % 1018,5 hPa 0,0 l/m 0,0 km/h (0 Bft) N 0,00 h 0,000 mm 0,0 UV-I 0 W/m 6,4 C 9,6 C 0,0 km/h (0 Bft) 0,00 %
05.11.2014 18:00 10,2 C 85 % 1018,4 hPa 0,0 l/m 0,0 km/h (0 Bft) N 0,00 h 0,000 mm 0,0 UV-I 0 W/m 7,8 C 10,2 C 0,0 km/h (0 Bft) 0,00 %
05.11.2014 19:00 10,0 C 85 % 1018,4 hPa 0,0 l/m 0,0 km/h (0 Bft) N 0,00 h 0,000 mm 0,0 UV-I 0 W/m 7,6 C 10,0 C 0,0 km/h (0 Bft) 0,00 %
05.11.2014 20:00 9,5 C 85 % 1018,5 hPa 0,0 l/m 0,0 km/h (0 Bft) N 0,00 h 0,000 mm 0,0 UV-I 0 W/m 7,1 C 9,5 C 0,0 km/h (0 Bft) 0,00 %
05.11.2014 21:00 9,4 C 85 % 1018,5 hPa 0,0 l/m 0,0 km/h (0 Bft) N 0,00 h 0,000 mm 0,0 UV-I 0 W/m 7,0 C 9,4 C 0,0 km/h (0 Bft) 0,00 %
05.11.2014 22:00 8,4 C 85 % 1018,7 hPa 0,0 l/m 0,0 km/h (0 Bft) N 0,00 h 0,000 mm 0,0 UV-I 0 W/m 6,0 C 8,4 C 0,0 km/h (0 Bft) 0,00 %
05.11.2014 23:00 8,8 C 85 % 1018,6 hPa 0,0 l/m 0,0 km/h (0 Bft) N 0,00 h 0,000 mm 0,0 UV-I 0 W/m 6,4 C 8,8 C 0,0 km/h (0 Bft) 0,00 %
06.11.2014 00:00 6,2 C 85 % 1019,0 hPa 0,0 l/m 0,0 km/h (0 Bft) N 0,00 h 0,000 mm 0,0 UV-I 0 W/m 3,9 C 6,2 C 0,0 km/h (0 Bft) 0,00 %
06.11.2014 01:00 6,6 C 85 % 1019,0 hPa 0,0 l/m 0,0 km/h (0 Bft) N 0,00 h 0,000 mm 0,0 UV-I 0 W/m 4,3 C 6,6 C 0,0 km/h (0 Bft) 0,00 %
06.11.2014 02:00 7,1 C 85 % 1018,9 hPa 0,0 l/m 0,0 km/h (0 Bft) N 0,00 h 0,000 mm 0,0 UV-I 0 W/m 4,8 C 7,1 C 0,0 km/h (0 Bft) 0,00 %
06.11.2014 03:00 7,6 C 85 % 1018,8 hPa 0,0 l/m 0,0 km/h (0 Bft) N 0,00 h 0,000 mm 0,0 UV-I 0 W/m 5,2 C 7,6 C 0,0 km/h (0 Bft) 0,00 %
06.11.2014 04:00 7,0 C 85 % 1018,9 hPa 0,0 l/m 0,0 km/h (0 Bft) N 0,00 h 0,000 mm 0,0 UV-I 0 W/m 4,7 C 7,0 C 0,0 km/h (0 Bft) 0,00 %
06.11.2014 05:00 6,5 C 84 % 1019,0 hPa 0,0 l/m 0,0 km/h (0 Bft) N 0,00 h 0,000 mm 0,0 UV-I 0 W/m 3,9 C 6,5 C 0,0 km/h (0 Bft) 0,00 %
06.11.2014 06:00 6,6 C 73 % 1019,0 hPa 0,0 l/m 0,0 km/h (0 Bft) N 0,00 h 0,000 mm 0,0 UV-I 0 W/m 2,0 C 6,6 C 0,0 km/h (0 Bft) 0,00 %
06.11.2014 07:00 6,3 C 70 % 1019,0 hPa 0,0 l/m 0,0 km/h (0 Bft) N 0,00 h 0,000 mm 0,0 UV-I 0 W/m 1,3 C 6,3 C 0,0 km/h (0 Bft) 0,00 %
06.11.2014 08:00 6,7 C 70 % 1019,0 hPa 0,0 l/m 0,0 km/h (0 Bft) N 0,00 h 0,000 mm 0,0 UV-I 0 W/m 1,7 C 6,7 C 0,0 km/h (0 Bft) 0,00 %
06.11.2014 09:00 7,2 C 70 % 1018,9 hPa 0,0 l/m 0,0 km/h (0 Bft) N 0,00 h 0,000 mm 0,0 UV-I 0 W/m 2,2 C 7,2 C 0,0 km/h (0 Bft) 0,00 %
06.11.2014 10:00 7,6 C 70 % 1018,8 hPa 0,0 l/m 0,0 km/h (0 Bft) N 0,00 h 0,000 mm 0,0 UV-I 0 W/m 2,5 C 7,6 C 0,0 km/h (0 Bft) 0,00 %
06.11.2014 11:00 8,1 C 70 % 1018,7 hPa 0,0 l/m 0,0 km/h (0 Bft) N 0,00 h 0,000 mm 0,0 UV-I 0 W/m 3,0 C 8,1 C 0,0 km/h (0 Bft) 0,00 %
06.11.2014 12:00 8,6 C 70 % 1013,8 hPa 0,0 l/m 0,0 km/h (0 Bft) N 0,00 h 0,000 mm 0,0 UV-I 0 W/m 3,4 C 8,6 C 0,0 km/h (0 Bft) 0,00 %
06.11.2014 13:00 9,0 C 70 % 1011,0 hPa 0,0 l/m 0,0 km/h (0 Bft) N 0,00 h 0,000 mm 0,0 UV-I 0 W/m 3,8 C 9,0 C 0,0 km/h (0 Bft) 0,00 %
06.11.2014 14:00 9,5 C 68 % 1010,8 hPa 0,0 l/m 0,0 km/h (0 Bft) N 0,00 h 0,000 mm 0,0 UV-I 0 W/m 3,7 C 9,5 C 0,0 km/h (0 Bft) 0,00 %
06.11.2014 15:00 9,6 C 65 % 1011,5 hPa 0,0 l/m 0,0 km/h (0 Bft) N 0,00 h 0,000 mm 0,0 UV-I 0 W/m 3,4 C 9,6 C 0,0 km/h (0 Bft) 0,00 %
06.11.2014 16:00 9,4 C 65 % 1011,2 hPa 0,0 l/m 0,0 km/h (0 Bft) N 0,00 h 0,000 mm 0,0 UV-I 0 W/m 3,1 C 9,4 C 0,0 km/h (0 Bft) 0,00 %
06.11.2014 17:00 9,8 C 65 % 1011,5 hPa 0,0 l/m 0,0 km/h (0 Bft) N 0,00 h 0,000 mm 0,0 UV-I 0 W/m 3,5 C 9,8 C 0,0 km/h (0 Bft) 0,00 %
06.11.2014 18:00 8,3 C 70 % 1012,0 hPa 0,0 l/m 0,0 km/h (0 Bft) N 0,00 h 0,000 mm 0,0 UV-I 0 W/m 3,1 C 8,3 C 0,0 km/h (0 Bft) 0,00 %
06.11.2014 19:00 8,6 C 75 % 1012,0 hPa 0,0 l/m 0,0 km/h (0 Bft) N 0,00 h 0,000 mm 0,0 UV-I 0 W/m 4,5 C 8,6 C 0,0 km/h (0 Bft) 0,00 %
06.11.2014 20:00 7,6 C 75 % 1012,3 hPa 0,0 l/m 0,0 km/h (0 Bft) N 0,00 h 0,000 mm 0,0 UV-I 0 W/m 3,5 C 7,6 C 0,0 km/h (0 Bft) 0,00 %
06.11.2014 21:00 7,6 C 75 % 1012,1 hPa 0,0 l/m 0,0 km/h (0 Bft) N 0,00 h 0,000 mm 0,0 UV-I 0 W/m 3,4 C 7,6 C 0,0 km/h (0 Bft) 0,00 %
06.11.2014 22:00 7,0 C 75 % 1012,2 hPa 0,0 l/m 0,0 km/h (0 Bft) N 0,00 h 0,000 mm 0,0 UV-I 0 W/m 2,9 C 7,0 C 0,0 km/h (0 Bft) 0,00 %
06.11.2014 23:00 6,5 C 80 % 1011,7 hPa 0,0 l/m 0,0 km/h (0 Bft) N 0,00 h 0,000 mm 0,0 UV-I 0 W/m 3,3 C 6,5 C 0,0 km/h (0 Bft) 0,00 %
07.11.2014 00:00 6,1 C 80 % 1011,7 hPa 0,0 l/m 0,0 km/h (0 Bft) N 0,00 h 0,000 mm 0,0 UV-I 0 W/m 2,9 C 6,1 C 0,0 km/h (0 Bft) 0,00 %
07.11.2014 01:00 4,3 C 80 % 1011,6 hPa 0,0 l/m 0,0 km/h (0 Bft) N 0,00 h 0,000 mm 0,0 UV-I 0 W/m 1,2 C 4,3 C 0,0 km/h (0 Bft) 0,00 %
07.11.2014 02:00 4,8 C 80 % 1010,9 hPa 0,0 l/m 0,0 km/h (0 Bft) N 0,00 h 0,000 mm 0,0 UV-I 0 W/m 1,6 C 4,8 C 0,0 km/h (0 Bft) 0,00 %
07.11.2014 03:00 3,3 C 85 % 1010,4 hPa 0,0 l/m 0,0 km/h (0 Bft) N 0,00 h 0,000 mm 0,0 UV-I 0 W/m 1,0 C 3,3 C 0,0 km/h (0 Bft) 0,00 %
07.11.2014 04:00 3,7 C 85 % 1009,9 hPa 0,0 l/m 0,0 km/h (0 Bft) N 0,00 h 0,000 mm 0,0 UV-I 0 W/m 1,4 C 3,7 C 0,0 km/h (0 Bft) 0,00 %
07.11.2014 05:00 3,4 C 85 % 1009,1 hPa 0,0 l/m 0,0 km/h (0 Bft) N 0,00 h 0,000 mm 0,0 UV-I 0 W/m 1,1 C 3,4 C 0,0 km/h (0 Bft) 0,00 %
07.11.2014 06:00 3,5 C 85 % 1008,9 hPa 0,0 l/m 0,0 km/h (0 Bft) N 0,00 h 0,000 mm 0,0 UV-I 0 W/m 1,3 C 3,5 C 0,0 km/h (0 Bft) 0,00 %
07.11.2014 07:00 4,0 C 85 % 1008,8 hPa 0,0 l/m 0,0 km/h (0 Bft) N 0,00 h 0,000 mm 0,0 UV-I 0 W/m 1,7 C 4,0 C 0,0 km/h (0 Bft) 0,00 %
07.11.2014 08:00 4,5 C 74 % 1008,7 hPa 0,0 l/m 0,0 km/h (0 Bft) N 0,00 h 0,000 mm 0,0 UV-I 0 W/m 0,1 C 4,5 C 0,0 km/h (0 Bft) 0,00 %
07.11.2014 09:00 4,9 C 70 % 1008,5 hPa 0,0 l/m 0,0 km/h (0 Bft) N 0,00 h 0,000 mm 0,0 UV-I 0 W/m -0,1 C 4,9 C 0,0 km/h (0 Bft) 0,00 %
07.11.2014 10:00 5,3 C 70 % 1008,6 hPa 0,0 l/m 0,0 km/h (0 Bft) N 0,00 h 0,000 mm 0,0 UV-I 0 W/m 0,3 C 5,3 C 0,0 km/h (0 Bft) 0,00 %
07.11.2014 11:00 5,7 C 70 % 1008,2 hPa 0,0 l/m 0,0 km/h (0 Bft) N 0,00 h 0,000 mm 0,0 UV-I 0 W/m 0,7 C 5,7 C 0,0 km/h (0 Bft) 0,00 %
07.11.2014 12:00 6,2 C 70 % 1007,4 hPa 0,0 l/m 0,0 km/h (0 Bft) N 0,00 h 0,000 mm 0,0 UV-I 0 W/m 1,2 C 6,2 C 0,0 km/h (0 Bft) 0,00 %
07.11.2014 13:00 6,6 C 65 % 1007,0 hPa 0,0 l/m 0,0 km/h (0 Bft) N 0,00 h 0,000 mm 0,0 UV-I 0 W/m 0,5 C 6,6 C 0,0 km/h (0 Bft) 0,00 %
07.11.2014 14:00 7,1 C 65 % 1006,5 hPa 0,0 l/m 0,0 km/h (0 Bft) N 0,00 h 0,000 mm 0,0 UV-I 0 W/m 0,9 C 7,1 C 0,0 km/h (0 Bft) 0,00 %
07.11.2014 15:00 7,5 C 65 % 1006,5 hPa 0,0 l/m 0,0 km/h (0 Bft) N 0,00 h 0,000 mm 0,0 UV-I 0 W/m 1,3 C 7,5 C 0,0 km/h (0 Bft) 0,00 %
07.11.2014 16:00 7,1 C 65 % 1007,3 hPa 0,0 l/m 0,0 km/h (0 Bft) N 0,00 h 0,000 mm 0,0 UV-I 0 W/m 1,0 C 7,1 C 0,0 km/h (0 Bft) 0,00 %
07.11.2014 17:00 5,3 C 65 % 1008,8 hPa 0,0 l/m 0,0 km/h (0 Bft) N 0,00 h 0,000 mm 0,0 UV-I 0 W/m -0,7 C 5,3 C 0,0 km/h (0 Bft) 0,00 %
07.11.2014 18:00 5,7 C 68 % 1009,5 hPa 0,0 l/m 0,0 km/h (0 Bft) N 0,00 h 0,000 mm 0,0 UV-I 0 W/m 0,2 C 5,7 C 0,0 km/h (0 Bft) 0,00 %
07.11.2014 19:00 4,3 C 70 % 1010,9 hPa 0,0 l/m 0,0 km/h (0 Bft) N 0,00 h 0,000 mm 0,0 UV-I 0 W/m -0,7 C 4,3 C 0,0 km/h (0 Bft) 0,00 %
07.11.2014 20:00 4,7 C 70 % 1011,8 hPa 0,0 l/m 0,0 km/h (0 Bft) N 0,00 h 0,000 mm 0,0 UV-I 0 W/m -0,3 C 4,7 C 0,0 km/h (0 Bft) 0,00 %
07.11.2014 21:00 3,7 C 70 % 1012,9 hPa 0,0 l/m 0,0 km/h (0 Bft) N 0,00 h 0,000 mm 0,0 UV-I 0 W/m -1,3 C 3,7 C 0,0 km/h (0 Bft) 0,00 %
07.11.2014 22:00 3,7 C 73 % 1013,2 hPa 0,0 l/m 0,0 km/h (0 Bft) N 0,00 h 0,000 mm 0,0 UV-I 0 W/m -0,8 C 3,7 C 0,0 km/h (0 Bft) 0,00 %
07.11.2014 23:00 4,1 C 80 % 1013,1 hPa 0,0 l/m 0,0 km/h (0 Bft) N 0,00 h 0,000 mm 0,0 UV-I 0 W/m 0,9 C 4,1 C 0,0 km/h (0 Bft) 0,00 %
08.11.2014 00:00 4,5 C 80 % 1013,4 hPa 0,0 l/m 0,0 km/h (0 Bft) N 0,00 h 0,000 mm 0,0 UV-I 0 W/m 1,3 C 4,5 C 0,0 km/h (0 Bft) 0,00 %
08.11.2014 01:00 4,6 C 80 % 1014,0 hPa 0,0 l/m 0,0 km/h (0 Bft) N 0,00 h 0,000 mm 0,0 UV-I 0 W/m 1,5 C 4,6 C 0,0 km/h (0 Bft) 0,00 %
08.11.2014 02:00 4,3 C 80 % 1014,4 hPa 0,0 l/m 0,0 km/h (0 Bft) N 0,00 h 0,000 mm 0,0 UV-I 0 W/m 1,2 C 4,3 C 0,0 km/h (0 Bft) 0,00 %
08.11.2014 03:00 4,8 C 80 % 1014,5 hPa 0,0 l/m 0,0 km/h (0 Bft) N 0,00 h 0,000 mm 0,0 UV-I 0 W/m 1,6 C 4,8 C 0,0 km/h (0 Bft) 0,00 %
08.11.2014 04:00 5,3 C 83 % 1014,8 hPa 0,0 l/m 0,0 km/h (0 Bft) N 0,00 h 0,000 mm 0,0 UV-I 0 W/m 2,5 C 5,3 C 0,0 km/h (0 Bft) 0,00 %
08.11.2014 05:00 5,6 C 85 % 1014,8 hPa 0,0 l/m 0,0 km/h (0 Bft) N 0,00 h 0,000 mm 0,0 UV-I 0 W/m 3,3 C 5,6 C 0,0 km/h (0 Bft) 0,00 %
08.11.2014 06:00 5,4 C 85 % 1014,9 hPa 0,0 l/m 0,0 km/h (0 Bft) N 0,00 h 0,000 mm 0,0 UV-I 0 W/m 3,1 C 5,4 C 0,0 km/h (0 Bft) 0,00 %
08.11.2014 07:00 5,6 C 81 % 1015,6 hPa 0,0 l/m 0,0 km/h (0 Bft) N 0,00 h 0,000 mm 0,0 UV-I 0 W/m 2,6 C 5,6 C 0,0 km/h (0 Bft) 0,00 %
08.11.2014 08:00 6,0 C 80 % 1016,3 hPa 0,0 l/m 0,0 km/h (0 Bft) N 0,00 h 0,000 mm 0,0 UV-I 0 W/m 2,8 C 6,0 C 0,0 km/h (0 Bft) 0,00 %
08.11.2014 09:00 6,5 C 80 % 1016,6 hPa 0,0 l/m 0,0 km/h (0 Bft) N 0,00 h 0,000 mm 0,0 UV-I 0 W/m 3,3 C 6,5 C 0,0 km/h (0 Bft) 0,00 %
08.11.2014 10:00 6,9 C 80 % 1016,6 hPa 0,0 l/m 0,0 km/h (0 Bft) N 0,00 h 0,000 mm 0,0 UV-I 0 W/m 3,7 C 6,9 C 0,0 km/h (0 Bft) 0,00 %
08.11.2014 11:00 7,5 C 80 % 1016,3 hPa 0,0 l/m 0,0 km/h (0 Bft) N 0,00 h 0,000 mm 0,0 UV-I 0 W/m 4,2 C 7,5 C 0,0 km/h (0 Bft) 0,00 %
08.11.2014 12:00 8,3 C 80 % 1015,5 hPa 0,0 l/m 0,0 km/h (0 Bft) N 0,00 h 0,000 mm 1,0 UV-I 111 W/m 5,1 C 8,3 C 0,0 km/h (0 Bft) 0,00 %
08.11.2014 13:00 9,4 C 81 % 1015,0 hPa 0,0 l/m 0,1 km/h (0 Bft) N 0,00 h 0,000 mm 1,0 UV-I 130 W/m 6,2 C 9,4 C 1,0 km/h (0 Bft) 0,00 %
08.11.2014 14:00 9,4 C 82 % 1014,7 hPa 0,6 l/m 0,0 km/h (0 Bft) NO 0,00 h 0,000 mm 1,0 UV-I 115 W/m 6,5 C 9,4 C 0,0 km/h (0 Bft) 0,00 %
08.11.2014 15:00 8,7 C 83 % 1014,5 hPa 0,0 l/m 1,5 km/h (1 Bft) O-SO 0,25 h 0,000 mm 0,0 UV-I 68 W/m 6,0 C 8,7 C 3,0 km/h (1 Bft) 0,00 %
08.11.2014 16:00 8,2 C 84 % 1013,9 hPa 0,0 l/m 0,4 km/h (0 Bft) O 0,00 h 0,000 mm 0,0 UV-I 0 W/m 5,7 C 8,2 C 3,0 km/h (1 Bft) 0,00 %
08.11.2014 17:00 7,5 C 84 % 1013,1 hPa 0,0 l/m 1,6 km/h (1 Bft) NO 0,00 h 0,000 mm 0,0 UV-I 0 W/m 4,9 C 7,5 C 3,0 km/h (1 Bft) 0,00 %
08.11.2014 18:00 6,8 C 83 % 1013,0 hPa 0,0 l/m 0,0 km/h (0 Bft) N 0,00 h 0,000 mm 0,0 UV-I 0 W/m 4,2 C 6,8 C 0,0 km/h (0 Bft) 0,00 %
08.11.2014 19:00 6,9 C 85 % 1012,5 hPa 0,0 l/m 1,7 km/h (1 Bft) O-SO 0,00 h 0,000 mm 0,0 UV-I 0 W/m 4,5 C 6,9 C 5,0 km/h (1 Bft) 0,00 %
08.11.2014 20:00 7,3 C 85 % 1011,9 hPa 0,0 l/m 3,6 km/h (1 Bft) O 0,00 h 0,000 mm 0,0 UV-I 0 W/m 4,8 C 7,2 C 5,9 km/h (2 Bft) 0,00 %
08.11.2014 21:00 7,2 C 83 % 1011,2 hPa 0,0 l/m 2,5 km/h (1 Bft) O-SO 0,00 h 0,000 mm 0,0 UV-I 0 W/m 4,4 C 7,2 C 4,0 km/h (1 Bft) 0,00 %
08.11.2014 22:00 6,7 C 82 % 1010,4 hPa 0,0 l/m 5,2 km/h (1 Bft) O-SO 0,00 h 0,000 mm 0,0 UV-I 0 W/m 3,8 C 6,7 C 8,9 km/h (2 Bft) 0,00 %
08.11.2014 23:00 6,6 C 81 % 1010,0 hPa 0,0 l/m 7,1 km/h (2 Bft) O 0,00 h 0,000 mm 0,0 UV-I 0 W/m 3,6 C 5,7 C 9,9 km/h (2 Bft) 0,00 %
09.11.2014 00:00 6,6 C 81 % 1009,5 hPa 0,0 l/m 6,1 km/h (2 Bft) O-SO 0,00 h 0,000 mm 0,0 UV-I 0 W/m 3,6 C 6,3 C 8,9 km/h (2 Bft) 0,00 %
09.11.2014 01:00 6,9 C 81 % 1009,1 hPa 0,0 l/m 9,3 km/h (2 Bft) O 0,00 h 0,000 mm 0,0 UV-I 0 W/m 3,8 C 4,7 C 12,8 km/h (3 Bft) 0,00 %
09.11.2014 02:00 6,9 C 82 % 1008,8 hPa 0,0 l/m 7,9 km/h (2 Bft) O-NO 0,00 h 0,000 mm 0,0 UV-I 0 W/m 4,1 C 5,4 C 12,9 km/h (3 Bft) 0,00 %
09.11.2014 03:00 6,8 C 83 % 1008,7 hPa 0,0 l/m 8,0 km/h (2 Bft) O 0,00 h 0,000 mm 0,0 UV-I 0 W/m 4,1 C 5,1 C 10,9 km/h (2 Bft) 0,00 %
09.11.2014 04:00 6,8 C 83 % 1008,8 hPa 0,0 l/m 4,9 km/h (1 Bft) NO 0,00 h 0,000 mm 0,0 UV-I 0 W/m 4,2 C 6,0 C 9,9 km/h (2 Bft) 0,00 %
09.11.2014 05:00 6,9 C 84 % 1008,6 hPa 0,0 l/m 4,9 km/h (1 Bft) S 0,00 h 0,000 mm 0,0 UV-I 0 W/m 4,3 C 6,2 C 8,9 km/h (2 Bft) 0,00 %
09.11.2014 06:00 6,8 C 84 % 1008,8 hPa 0,0 l/m 2,5 km/h (1 Bft) O-SO 0,00 h 0,000 mm 0,0 UV-I 0 W/m 4,3 C 6,8 C 5,0 km/h (1 Bft) 0,00 %
09.11.2014 07:00 6,6 C 84 % 1009,2 hPa 0,0 l/m 0,2 km/h (0 Bft) N 0,00 h 0,000 mm 0,0 UV-I 0 W/m 4,1 C 6,6 C 1,0 km/h (0 Bft) 0,00 %
09.11.2014 08:00 6,9 C 84 % 1009,8 hPa 0,0 l/m 0,0 km/h (0 Bft) N 0,00 h 0,000 mm 0,0 UV-I 28 W/m 4,4 C 6,9 C 0,0 km/h (0 Bft) 0,00 %
09.11.2014 09:00 7,1 C 84 % 1009,8 hPa 0,0 l/m 0,3 km/h (0 Bft) N 0,00 h 0,000 mm 1,0 UV-I 129 W/m 4,6 C 7,1 C 2,0 km/h (1 Bft) 0,00 %
09.11.2014 10:00 7,6 C 84 % 1009,9 hPa 0,0 l/m 0,0 km/h (0 Bft) N 0,00 h 0,000 mm 1,0 UV-I 144 W/m 4,9 C 7,6 C 0,0 km/h (0 Bft) 0,00 %
09.11.2014 11:00 7,6 C 83 % 1009,9 hPa 0,0 l/m 0,0 km/h (0 Bft) N 0,00 h 0,000 mm 1,0 UV-I 184 W/m 4,9 C 7,6 C 0,0 km/h (0 Bft) 0,00 %
09.11.2014 12:00 7,6 C 83 % 1009,9 hPa 0,0 l/m 0,0 km/h (0 Bft) N 0,00 h 0,000 mm 1,0 UV-I 193 W/m 4,9 C 7,6 C 0,0 km/h (0 Bft) 0,00 %
09.11.2014 13:00 7,6 C 83 % 1009,6 hPa 0,0 l/m 1,1 km/h (0 Bft) O-SO 0,00 h 0,000 mm 1,0 UV-I 165 W/m 5,0 C 7,6 C 2,0 km/h (1 Bft) 0,00 %
09.11.2014 14:00 7,6 C 84 % 1009,8 hPa 0,0 l/m 0,7 km/h (0 Bft) SO 0,00 h 0,000 mm 0,0 UV-I 52 W/m 4,9 C 7,6 C 2,0 km/h (1 Bft) 0,00 %
09.11.2014 15:00 7,5 C 84 % 1010,0 hPa 0,0 l/m 2,3 km/h (1 Bft) O-SO 0,00 h 0,000 mm 0,0 UV-I 8 W/m 5,0 C 7,4 C 5,0 km/h (1 Bft) 0,00 %
09.11.2014 16:00 7,5 C 84 % 1010,1 hPa 0,0 l/m 0,9 km/h (0 Bft) O-SO 0,00 h 0,000 mm 0,0 UV-I 0 W/m 5,0 C 7,5 C 2,0 km/h (1 Bft) 0,00 %
09.11.2014 17:00 7,5 C 85 % 1010,3 hPa 0,0 l/m 2,3 km/h (1 Bft) O 0,00 h 0,000 mm 0,0 UV-I 0 W/m 5,1 C 7,5 C 5,0 km/h (1 Bft) 0,00 %
09.11.2014 18:00 7,6 C 85 % 1010,4 hPa 0,0 l/m 0,4 km/h (0 Bft) SO 0,00 h 0,000 mm 0,0 UV-I 0 W/m 5,2 C 7,6 C 2,0 km/h (1 Bft) 0,00 %
09.11.2014 19:00 7,8 C 85 % 1009,8 hPa 0,0 l/m 0,1 km/h (0 Bft) N 0,00 h 0,000 mm 0,0 UV-I 0 W/m 5,5 C 7,8 C 1,0 km/h (0 Bft) 0,00 %
09.11.2014 20:00 7,9 C 85 % 1009,4 hPa 0,0 l/m 0,6 km/h (0 Bft) SO 0,00 h 0,000 mm 0,0 UV-I 0 W/m 5,5 C 7,9 C 3,0 km/h (1 Bft) 0,00 %
09.11.2014 21:00 7,9 C 85 % 1009,3 hPa 0,0 l/m 0,0 km/h (0 Bft) N 0,00 h 0,000 mm 0,0 UV-I 0 W/m 5,6 C 7,9 C 0,0 km/h (0 Bft) 0,00 %
09.11.2014 22:00 8,2 C 85 % 1009,2 hPa 0,0 l/m 0,3 km/h (0 Bft) N 0,00 h 0,000 mm 0,0 UV-I 0 W/m 5,8 C 8,2 C 2,0 km/h (1 Bft) 0,00 %
09.11.2014 23:00 8,3 C 85 % 1009,0 hPa 0,0 l/m 0,6 km/h (0 Bft) O-SO 0,00 h 0,000 mm 0,0 UV-I 0 W/m 6,0 C 8,3 C 3,0 km/h (1 Bft) 0,00 %
Min-Datum _ 07.11.14 06.11.14 07.11.14 - 03.11.14 - - - - - 07.11.14 03.11.14 03.11.14 03.11.14
_ Min-Zeit 03:00 14:30 14:45 - 00:15 - - - - - 21:15 20:15 00:15 00:00
Minimum _ 3,1 C 65 % 1006,2 hPa - 0,0 km/h (0 Bft) - - - - - -1,7 C 0,2 C 0,0 km/h (0 Bft) 0,00 %
Max-Datum _ 04.11.14 03.11.14 04.11.14 08.11.14 09.11.14 - 08.11.14 03.11.14 03.11.14 09.11.14 04.11.14 04.11.14 03.11.14 03.11.14
_ Max-Zeit 13:45 05:45 04:30 14:00 01:15 - 15:45 00:00 08:15 12:15 13:45 13:45 20:15 00:00
Maximum _ 13,7 C 90 % 1019,4 hPa 0,6 l/m 15,5 km/h
O (3 Bft)
- 0,25 h 0,000 mm 1,0 UV-I 224 W/m 10,3 C 13,7 C 19,8 km/h
O (3 Bft)
0,00 %
Durchschnitt _ 6,6 C 82 % 1015,1 hPa #0,9 l/m 0,8 km/h (0 Bft) O #15 min. #0,000 mm 1,0 UV-I 100 W/m 3,7 C 6,5 C 1,6 km/h (1 Bft) 0,00 %